| time (UTC) | temp F | wind direction | speed knots | gust knots | rain 1hr in | rain 24hr in | rain mn in | humidity % | barometer mb |
| 20260906205007 | 82 | 170 | 11.3 | 15.6 | 0.00 | 0.00 | 0.00 | 58 | 1016.6 |
| 20260906201959 | 82 | 170 | 11.3 | 15.6 | 0.00 | 0.00 | 0.00 | 58 | 1016.6 |
| 20260906194101 | 82 | 180 | 10.4 | 17.4 | 0.00 | 0.00 | 0.00 | 55 | 1017.3 |
| 20260906191056 | 82 | 180 | 10.4 | 17.4 | 0.00 | 0.00 | 0.00 | 55 | 1017.3 |
| 20260906184051 | 79 | 180 | 12.2 | 0.0 | 0.00 | 0.00 | 0.00 | 61 | 1018.3 |
| 20260906181046 | 79 | 180 | 12.2 | 0.0 | 0.00 | 0.00 | 0.00 | 61 | 1018.3 |
| 20260906174042 | 75 | 180 | 13.0 | 18.2 | 0.00 | 0.00 | 0.00 | 69 | 1019.0 |
| 20260906171036 | 75 | 180 | 13.0 | 18.2 | 0.00 | 0.00 | 0.00 | 69 | 1019.0 |
| 20260906164032 | 72 | 200 | 10.4 | 0.0 | 0.00 | 0.00 | 0.00 | 73 | 1019.3 |
| 20260906161026 | 72 | 200 | 10.4 | 0.0 | 0.00 | 0.00 | 0.00 | 73 | 1019.3 |
| 20260906154021 | 66 | 180 | 6.1 | 0.0 | 0.00 | 0.00 | 0.00 | 83 | 1019.0 |
| 20260906151019 | 66 | 180 | 6.1 | 0.0 | 0.00 | 0.00 | 0.00 | 83 | 1019.0 |
| 20260906144011 | 64 | 2.6 | 0.0 | 0.01 | 0.00 | 0.00 | 88 | 1019.3 | |
| 20260906141009 | 64 | 2.6 | 0.0 | 0.01 | 0.00 | 0.00 | 88 | 1019.3 | |
| 20260906134001 | 63 | 120 | 4.3 | 0.0 | 0.00 | 1.15 | 0.00 | 88 | 1018.6 |
| 20260906130955 | 63 | 120 | 4.3 | 0.0 | 0.00 | 1.15 | 0.00 | 88 | 1018.6 |
| 20260906123951 | 63 | 290 | 7.8 | 0.0 | 0.00 | 1.15 | 0.00 | 88 | 1018.6 |
| 20260906120948 | 63 | 290 | 7.8 | 0.0 | 0.00 | 1.15 | 0.00 | 88 | 1018.6 |
| 20260906113941 | 63 | 160 | 8.7 | 0.0 | 0.00 | 0.00 | 0.00 | 88 | 1018.3 |
| 20260906110936 | 63 | 130 | 11.3 | 0.0 | 0.00 | 0.00 | 0.00 | 83 | 1017.9 |
| 20260906103931 | 64 | 80 | 7.8 | 0.0 | 0.00 | 0.00 | 0.00 | 77 | 1017.6 |
| 20260906100926 | 64 | 80 | 7.8 | 0.0 | 0.00 | 0.00 | 0.00 | 77 | 1017.6 |
| 20260906093921 | 64 | 140 | 12.2 | 0.0 | 0.00 | 0.00 | 0.00 | 77 | 1017.6 |
| 20260906090916 | 64 | 90 | 7.0 | 0.0 | 0.00 | 0.00 | 0.00 | 77 | 1017.6 |
| 20260906083910 | 64 | 100 | 13.0 | 0.0 | 0.00 | 0.00 | 0.00 | 77 | 1017.6 |
| 20260906080905 | 64 | 100 | 13.0 | 0.0 | 0.00 | 0.00 | 0.00 | 77 | 1017.6 |
| 20260906073901 | 63 | 90 | 7.8 | 20.9 | 0.00 | 0.00 | 0.00 | 83 | 1017.9 |
| 20260906070855 | 63 | 70 | 12.2 | 21.7 | 0.00 | 0.00 | 0.00 | 83 | 1017.6 |
| 20260906063851 | 64 | 100 | 19.1 | 41.7 | 0.39 | 0.00 | 0.00 | 77 | 1019.0 |
| 20260906060847 | 64 | 90 | 12.2 | 26.9 | 0.03 | 0.00 | 0.00 | 88 | 1019.6 |
| 20260906053840 | 63 | 140 | 13.0 | 0.0 | 0.01 | 0.00 | 0.00 | 94 | 1020.0 |
| 20260906050835 | 66 | 110 | 17.4 | 25.2 | 1.74 | 0.00 | 0.00 | 94 | 1019.0 |
| 20260906043830 | 66 | 4.3 | 0.0 | 0.61 | 0.00 | 0.00 | 94 | 1020.7 | |
| 20260906040825 | 64 | 250 | 21.7 | 37.4 | 0.47 | 0.00 | 0.00 | 100 | 1021.0 |
| 20260906033821 | 70 | 20 | 15.6 | 0.0 | 0.00 | 0.00 | 0.00 | 78 | 1017.3 |
| 20260906030815 | 68 | 360 | 17.4 | 0.0 | 0.04 | 0.00 | 0.00 | 83 | 1017.9 |
| 20260906023811 | 79 | 70 | 11.3 | 0.0 | 0.00 | 0.00 | 0.00 | 48 | 1016.6 |
| 20260906020807 | 75 | 70 | 8.7 | 19.1 | 0.00 | 0.00 | 0.00 | 54 | 1016.6 |
| 20260906013800 | 79 | 150 | 17.4 | 26.1 | 0.00 | 0.00 | 0.00 | 42 | 1014.6 |
| 20260906010755 | 79 | 150 | 17.4 | 26.1 | 0.00 | 0.00 | 0.00 | 42 | 1014.6 |
| 20260906003751 | 81 | 160 | 32.2 | 42.6 | 0.00 | 0.00 | 0.00 | 51 | 1015.9 |
| 20260906000747 | 81 | 160 | 32.2 | 42.6 | 0.00 | 0.00 | 0.00 | 51 | 1015.9 |
| 20260905233740 | 93 | 140 | 15.6 | 25.2 | 0.00 | 0.00 | 0.00 | 32 | 1014.2 |
| 20260905230736 | 93 | 140 | 15.6 | 25.2 | 0.00 | 0.00 | 0.00 | 32 | 1014.2 |
| 20260905223730 | 95 | 150 | 13.0 | 22.6 | 0.00 | 0.00 | 0.00 | 28 | 1014.6 |
| 20260905220729 | 95 | 150 | 13.0 | 22.6 | 0.00 | 0.00 | 0.00 | 28 | 1014.6 |
| 20260905213710 | 95 | 150 | 14.8 | 26.1 | 0.00 | 0.00 | 0.00 | 28 | 1015.6 |
| 20260905210702 | 95 | 150 | 14.8 | 26.1 | 0.00 | 0.00 | 0.00 | 28 | 1015.6 |